CCA9535 ZBAA-ZBTJ

Flight info

Callsign CCA9535
Flight time 0h 20m
Altitude 10800
Route TAJ
Aircraft A320/M-SDE2E3FGHIRWXY/LB1

Departure

Time 2026-04-16 04:42
Airport Beijing Capital International Airport (ZBAA)

Arrival

Time 2026-04-16 05:02
Airport Tianjin Binhai International Airport (ZBTJ)
Time Latitude Longitude Altitude Speed Heading
2026-04-16 04:11 40.07009 116.59135 124 ft 0 kts 263°
2026-04-16 04:27 40.07010 116.59153 120 ft 3 kts 268°
2026-04-16 04:27 40.07010 116.59179 121 ft 3 kts 281°
2026-04-16 04:27 40.07004 116.59204 120 ft 3 kts 305°
2026-04-16 04:27 40.06992 116.59219 119 ft 2 kts 347°
2026-04-16 04:28 40.06984 116.59221 119 ft 1 kts 353°
2026-04-16 04:28 40.06983 116.59221 119 ft 0 kts 353°
2026-04-16 04:31 40.06994 116.59219 124 ft 6 kts 353°
2026-04-16 04:31 40.07017 116.59216 122 ft 1 kts 353°
2026-04-16 04:31 40.07052 116.59210 121 ft 10 kts 353°
2026-04-16 04:31 40.07129 116.59198 122 ft 9 kts 353°
2026-04-16 04:32 40.07181 116.59190 121 ft 10 kts 353°
2026-04-16 04:32 40.07303 116.59171 122 ft 20 kts 353°
2026-04-16 04:32 40.07420 116.59153 124 ft 13 kts 356°
2026-04-16 04:32 40.07457 116.59210 122 ft 7 kts 87°
2026-04-16 04:33 40.07467 116.59277 117 ft 12 kts 70°
2026-04-16 04:33 40.07495 116.59401 120 ft 13 kts 49°
2026-04-16 04:33 40.07565 116.59410 122 ft 8 kts 352°
2026-04-16 04:33 40.07603 116.59402 122 ft 3 kts 352°
2026-04-16 04:34 40.07610 116.59401 124 ft 0 kts 352°
2026-04-16 04:34 40.07617 116.59400 124 ft 6 kts 352°
2026-04-16 04:34 40.07660 116.59392 119 ft 4 kts 352°
2026-04-16 04:34 40.07672 116.59389 122 ft 0 kts 352°
2026-04-16 04:35 40.07721 116.59383 122 ft 9 kts 354°
2026-04-16 04:35 40.07768 116.59377 121 ft 4 kts 354°
2026-04-16 04:35 40.07782 116.59375 121 ft 2 kts 354°
2026-04-16 04:35 40.07832 116.59368 123 ft 7 kts 353°
2026-04-16 04:36 40.07867 116.59362 122 ft 6 kts 353°
2026-04-16 04:36 40.07925 116.59353 123 ft 10 kts 353°
2026-04-16 04:36 40.07973 116.59345 122 ft 5 kts 353°
2026-04-16 04:36 40.07989 116.59343 122 ft 0 kts 353°
2026-04-16 04:38 40.08032 116.59336 121 ft 14 kts 353°
2026-04-16 04:38 40.08144 116.59318 123 ft 15 kts 353°
2026-04-16 04:38 40.08234 116.59303 121 ft 10 kts 353°
2026-04-16 04:38 40.08299 116.59293 124 ft 12 kts 353°
2026-04-16 04:39 40.08397 116.59277 124 ft 13 kts 353°
2026-04-16 04:39 40.08469 116.59266 122 ft 8 kts 353°
2026-04-16 04:39 40.08507 116.59260 121 ft 6 kts 353°
2026-04-16 04:39 40.08612 116.59244 123 ft 19 kts 353°
2026-04-16 04:40 40.08732 116.59226 122 ft 15 kts 353°
2026-04-16 04:40 40.08810 116.59244 121 ft 9 kts 54°
2026-04-16 04:40 40.08816 116.59300 123 ft 4 kts 84°
2026-04-16 04:40 40.08818 116.59329 124 ft 8 kts 84°
2026-04-16 04:41 40.08825 116.59465 124 ft 16 kts 106°
2026-04-16 04:41 40.08740 116.59515 122 ft 13 kts 174°
2026-04-16 04:41 40.08591 116.59538 124 ft 48 kts 173°
2026-04-16 04:41 40.08014 116.59630 121 ft 115 kts 173°
2026-04-16 04:42 40.07062 116.59779 358 ft 149 kts 172°
2026-04-16 04:42 40.06002 116.59981 978 ft 160 kts 172°
2026-04-16 04:42 40.04864 116.60193 1572 ft 169 kts 172°
2026-04-16 04:42 40.03759 116.60457 2056 ft 163 kts 171°
2026-04-16 04:43 40.02591 116.60737 2601 ft 177 kts 172°
2026-04-16 04:43 40.01350 116.61071 3239 ft 186 kts 171°
2026-04-16 04:43 40.00034 116.61466 3851 ft 203 kts 169°
2026-04-16 04:43 39.98601 116.61935 4524 ft 221 kts 168°
2026-04-16 04:44 39.97065 116.62478 5258 ft 238 kts 167°
2026-04-16 04:44 39.95349 116.63069 5704 ft 265 kts 168°
2026-04-16 04:44 39.93577 116.63658 6857 ft 262 kts 169°
2026-04-16 04:44 39.91799 116.64244 7885 ft 265 kts 169°
2026-04-16 04:45 39.90611 116.64627 8550 ft 267 kts 169°
2026-04-16 04:45 39.88810 116.65296 9503 ft 274 kts 160°
2026-04-16 04:45 39.86720 116.67287 10485 ft 294 kts 142°
2026-04-16 04:45 39.85659 116.68532 10665 ft 313 kts 141°
2026-04-16 04:46 39.83977 116.70540 10764 ft 344 kts 141°
2026-04-16 04:46 39.82146 116.72746 10787 ft 373 kts 140°
2026-04-16 04:46 39.80207 116.75095 10774 ft 385 kts 140°
2026-04-16 04:46 39.78245 116.77478 10778 ft 387 kts 140°
2026-04-16 04:47 39.76275 116.79863 10777 ft 387 kts 140°
2026-04-16 04:47 39.74295 116.82248 10778 ft 388 kts 140°
2026-04-16 04:47 39.72320 116.84622 10777 ft 387 kts 140°
2026-04-16 04:47 39.70337 116.86997 10774 ft 388 kts 140°
2026-04-16 04:48 39.68353 116.89367 10774 ft 388 kts 140°
2026-04-16 04:48 39.66367 116.91734 10774 ft 388 kts 140°
2026-04-16 04:48 39.64406 116.94069 10777 ft 388 kts 140°
2026-04-16 04:48 39.62420 116.96437 10773 ft 388 kts 140°
2026-04-16 04:49 39.60432 116.98803 10773 ft 388 kts 140°
2026-04-16 04:49 39.58446 117.01165 10772 ft 387 kts 140°
2026-04-16 04:49 39.56459 117.03524 10771 ft 388 kts 140°
2026-04-16 04:49 39.54471 117.05885 10770 ft 388 kts 140°
2026-04-16 04:50 39.52370 117.08039 10760 ft 384 kts 151°
2026-04-16 04:50 39.49929 117.09350 10761 ft 379 kts 166°
2026-04-16 04:50 39.47423 117.10236 10532 ft 369 kts 167°
2026-04-16 04:50 39.44956 117.11087 10291 ft 366 kts 167°
2026-04-16 04:51 39.42498 117.11921 10049 ft 364 kts 167°
2026-04-16 04:51 39.40090 117.12741 9872 ft 349 kts 167°
2026-04-16 04:51 39.37806 117.13524 9740 ft 331 kts 167°
2026-04-16 04:51 39.35634 117.14275 9598 ft 315 kts 167°
2026-04-16 04:52 39.33566 117.14993 9477 ft 301 kts 167°
2026-04-16 04:52 39.31587 117.15678 9342 ft 288 kts 167°
2026-04-16 04:52 39.29691 117.16331 9211 ft 276 kts 167°
2026-04-16 04:52 39.27855 117.16962 9076 ft 270 kts 167°
2026-04-16 04:53 39.26045 117.17582 8942 ft 268 kts 167°
2026-04-16 04:53 39.24258 117.18194 8802 ft 264 kts 167°
2026-04-16 04:53 39.22487 117.18800 8690 ft 263 kts 167°
2026-04-16 04:53 39.20722 117.19402 8560 ft 262 kts 167°
2026-04-16 04:54 39.18961 117.20003 8428 ft 261 kts 167°
2026-04-16 04:54 39.17210 117.20640 8314 ft 262 kts 161°
2026-04-16 04:54 39.15641 117.21850 8181 ft 267 kts 142°
2026-04-16 04:54 39.14488 117.23741 8055 ft 274 kts 121°
2026-04-16 04:55 39.13935 117.26106 7932 ft 281 kts 100°
2026-04-16 04:55 39.14106 117.28641 7796 ft 290 kts 77°
2026-04-16 04:55 39.14925 117.31035 7676 ft 294 kts 67°
2026-04-16 04:55 39.15834 117.33399 7551 ft 294 kts 67°
2026-04-16 04:56 39.16736 117.35754 7426 ft 293 kts 68°
2026-04-16 04:56 39.17634 117.38106 7305 ft 292 kts 68°
2026-04-16 04:56 39.18537 117.40461 6957 ft 296 kts 65°
2026-04-16 04:56 39.19876 117.42489 6573 ft 300 kts 37°
2026-04-16 04:57 39.21792 117.43483 6175 ft 299 kts
2026-04-16 04:57 39.23805 117.43208 5619 ft 298 kts 336°
2026-04-16 04:57 39.25673 117.42036 5178 ft 296 kts 329°
2026-04-16 04:57 39.27466 117.40834 5000 ft 284 kts 327°
2026-04-16 04:58 39.28870 117.39208 4856 ft 263 kts 297°
2026-04-16 04:58 39.29437 117.37073 4485 ft 250 kts 268°
2026-04-16 04:58 39.29172 117.34858 3803 ft 254 kts 252°
2026-04-16 04:58 39.28706 117.32624 3168 ft 261 kts 252°
2026-04-16 04:59 39.28164 117.30465 3057 ft 243 kts 239°
2026-04-16 04:59 39.26982 117.29048 2830 ft 234 kts 204°
2026-04-16 04:59 39.25362 117.28919 2444 ft 241 kts 165°
2026-04-16 04:59 39.23961 117.30058 2198 ft 238 kts 144°
2026-04-16 05:00 39.22572 117.31154 1834 ft 231 kts 158°
2026-04-16 05:00 39.21164 117.31981 1511 ft 211 kts 159°
2026-04-16 05:00 39.19904 117.32736 1263 ft 187 kts 159°
2026-04-16 05:00 39.18805 117.33407 1048 ft 162 kts 158°
2026-04-16 05:01 39.17856 117.33988 827 ft 141 kts 159°
2026-04-16 05:01 39.16995 117.34515 657 ft 135 kts 158°
2026-04-16 05:01 39.16152 117.35029 481 ft 134 kts 158°
2026-04-16 05:01 39.15317 117.35540 275 ft 133 kts 157°
2026-04-16 05:02 39.14475 117.36060 138 ft 135 kts 157°
2026-04-16 05:02 39.13639 117.36577 27 ft 126 kts 155°
2026-04-16 05:02 39.12964 117.36985 21 ft 83 kts 155°
2026-04-16 05:02 39.12586 117.37215 20 ft 44 kts 156°
2026-04-16 05:03 39.12347 117.37253 19 ft 22 kts 181°
2026-04-16 05:03 39.12284 117.37183 19 ft 12 kts 287°
2026-04-16 05:03 39.12362 117.37120 20 ft 15 kts 335°
2026-04-16 05:04 39.12595 117.36976 19 ft 22 kts 333°
2026-04-16 05:04 39.12723 117.36882 19 ft 17 kts 298°
2026-04-16 05:04 39.12687 117.36735 19 ft 19 kts 243°
2026-04-16 05:04 39.12633 117.36594 19 ft 19 kts 244°
2026-04-16 05:05 39.12571 117.36430 19 ft 22 kts 244°
2026-04-16 05:05 39.12508 117.36246 19 ft 17 kts 264°
2026-04-16 05:05 39.12552 117.36141 21 ft 13 kts 302°
2026-04-16 05:05 39.12558 117.36128 20 ft 0 kts 302°